COSMOS 2322

Satellite information

Favourite Embed

Satellite Type and Status

PAYLOADIN ORBIT

Key statistics

Satellite COSMOS 2322 at a glance.

Uptime

10841

Days in orbit

Revolutions

≈ 14.1

Per day

Orbit

LEO

Low Earth Orbit

Inclination

71.0

Latest

Satellite identification and parameters

Extended collection of information and parameters for COSMOS 2322.

Object identification

Identified? True

Debris? False

Object name: COSMOS 2322

International designator: 1995-058A

Object number (NORAD): 23704

Object ID (CCSDS): 23704

Country: COMMONWEALTH OF INDEPENDENT STATES (CIS)

Current information (Y/N): Y

RCS size: LARGE

Orbital parameters

Period: 101.857 minutes

Inclination: 70.9848 deg

SMA: 7224.712 km

Apoapsis: 854.251 km

Periapsis: 838.903 km

RAAN: 359.7666 deg

Eccentricy: 0.0010622

Argument of periapsis: 313.413 deg

Mean anomaly: 46.6107 deg

Mean motion: 14.1374784 rev/day

Mean motion (dot): 0.00000028 rev/day2

B* drag term: 0.000040051 1/REarth

Two-line elements (TLE)

Creation date: July 5, 2025, 5:45 p.m.

Reference frame: TEME

Reference center: EARTH

Epoch: July 5, 2025, 2:31 p.m. UTC

TLE line 0: 0 COSMOS 2322

TLE line 1: 1 23704U 95058A 25186.60535245 .00000028 00000-0 40051-4 0 9999

TLE line 2: 2 23704 70.9848 359.7666 0010622 313.4130 46.6107 14.13747840531138

Live tracking on map

Real-time ground track for satellite COSMOS 2322.

In-orbit conjunctions

A list of the most updated potential collisions computed for object COSMOS 2322.

Target Orbit TCA Probability of collision Miss distance Type
FENGYUN 1C DEB SSO 2025-06-21 10:12:55 0.0001591522 198.0 (m) DEBRIS
FENGYUN 1C DEB SSO 2025-06-06 08:05:47 0.0001468862 431.0 (m) DEBRIS
CZ-2C DEB SSO 2025-01-06 12:27:55 0.000540573 771.0 (m) DEBRIS
FENGYUN 1C DEB SSO 2024-11-05 19:28:48 0.0001311968 968.0 (m) DEBRIS
FENGYUN 1C DEB SSO 2024-10-16 08:45:07 0.0001604486 85.0 (m) DEBRIS

Associated space launch

Second generation ELING satellite

COSMOS 2322 was lifted into orbit during the mission ‘Zenit-2 | Tselina-2 17’, on board a Zenit-2 space rocket.

The launch took place on Oct. 31, 1995, 8:19 p.m. from 45/1.

For more information about the launch, click the button.

Launch to space Zenit-2 | Tselina-2 17
Zenit-2 | Tselina-2 17

Agency: N/A

Status: Launch Successful

Launch date: Oct. 31, 1995, 8:19 p.m. UTC

Rocket: Zenit-2

Launch pad: 45/1

Location: Baikonur Cosmodrome, Republic of Kazakhstan

...

Latest news about this satellite

There are no fresh news available about this satellite. Check back as we update our databases every day.


Newsletter sign-up

Weekly statistics, charts and insights to help you stay on top of the space industry.